sat.trackr.live / text

‹ back to catalog

STARLINK-31438

NORAD 59234 · 2024-049D

PAYLOAD ACTIVE UNKNOWN

§ Identity

Operator
Country
US
Launch date
2024-03-16
Launch site
AFETR
Launch vehicle
Mass (kg)
RCS (m²)

Purposes: comms

External: N2YO · Heavens-Above · Gunter

§ Orbital elements

Epoch: 2026-09-20T00:29:13.976160Z

Period
94.27 min
Inclination
42.9995°
Eccentricity
0.0000536
Mean motion
15.27574859 rev/d
Perigee alt
482.7 km
Apogee alt
483.4 km
Semi-major
6,861.2 km
B*
5.7601e-6
RAAN
115.0529°
Arg perigee
324.4572°
Mean anomaly
35.6244°
Rev number
14,224

§ Raw data

STARLINK-314381 59234U 24049D   26263.02030065 -.00000103  00000+0  57601-5 0  99952 59234  42.9995 115.0529 0000536 324.4572  35.6244 15.27574859142247

JSON: /api/v1/satellites/59234 · /tle

For live sub-satellite position, see the globe view (requires WebGL).

§ Visibility from observer

Set your observer location to see the next 7 days of passes ≥ 10°. The values pass through the URL so the page stays shareable.

No JS? Fill the form by hand. The geolocation button needs JavaScript.